Madison, SD

8:21 AM CST on November 20, 2019 (GMT -0600)
Madison Municipal

Weather History for KMDS - September, 2019

Change the Weather History Date:

Wednesday, September 4, 2019

  Actual Average Record
Temperature  
Mean Temperature 60 °F -  
Max Temperature 71 °F 79 °F 89 °F (2012)
Min Temperature 48 °F 53 °F 42 °F (2010)
Degree Days  
Heating Degree Days 6    
Growing Degree Days 10 (Base 50)    
Moisture  
Dew Point 56 °F    
Average Humidity 90    
Maximum Humidity 100    
Minimum Humidity 60    
Precipitation  
Precipitation 0.00 in - - ()
Sea Level Pressure  
Sea Level Pressure 30.15 in    
Wind  
Wind Speed 5 mph ()    
Max Wind Speed 15 mph    
Max Gust Speed 20 mph    
Visibility 10.0 miles    
Events      
Averages and records for this station are not official NWS values.
T = Trace of Precipitation, MM = Missing Value Source: Averaged Metar Reports

Daily Weather History Graph

Daily Weather History Graph

Search for Another Location

Airport or City:

Astronomy

Sep. 04, 2019 Rise Set
Actual Time 6:54 AM CDT 7:59 PM CDT
Civil Twilight 6:25 AM CDT 8:28 PM CDT
Nautical Twilight 5:49 AM CDT 9:03 PM CDT
Astronomical Twilight 5:12 AM CDT 9:40 PM CDT
Moon 1:09 PM CDT (9/4) 11:21 PM CDT (9/4)
Length of Visible Light 14h 03m
Length of Day
13h 04m
Waxing Crescent, 35% of the Moon is Illuminated
Sep 4
Waxing Crescent
Sep 5
First Quarter
Sep 13
Full
Sep 21
Last Quarter
Sep 28
New

Hourly Weather History & Observations

Time (CDT) Temp. Dew Point Humidity Pressure Visibility Wind Dir Wind Speed Gust Speed Precip Events Conditions
12:00 AM 53.6 °F 53.6 °F 100% 30.14 in 10.0 mi NW 4.6 mph - N/A   Clear
12:15 AM 53.6 °F 53.6 °F 100% 30.14 in 10.0 mi NNW 4.6 mph - N/A   Clear
12:20 AM 53.6 °F 53.6 °F 100% 30.14 in 10.0 mi NNW 4.6 mph - N/A   Clear
12:35 AM 51.8 °F 51.8 °F 100% 30.14 in 10.0 mi NNW 3.5 mph - N/A   Clear
12:55 AM 51.8 °F 51.8 °F 100% 30.14 in 10.0 mi NNW 3.5 mph - N/A   Clear
1:15 AM 53.6 °F 53.6 °F 100% 30.15 in 10.0 mi Calm Calm - N/A   Clear
1:20 AM 53.6 °F 53.6 °F 100% 30.15 in 10.0 mi Calm Calm - N/A   Clear
1:35 AM 50.0 °F 50.0 °F 100% 30.16 in 10.0 mi North 4.6 mph - N/A   Clear
2:00 AM 50.0 °F 50.0 °F 100% 30.16 in 10.0 mi North 4.6 mph - N/A   Clear
2:15 AM 50.0 °F 50.0 °F 100% 30.16 in 10.0 mi North 6.9 mph - N/A   Clear
2:20 AM 50.0 °F 50.0 °F 100% 30.16 in 10.0 mi North 6.9 mph - N/A   Clear
2:35 AM 48.2 °F 48.2 °F 100% 30.16 in 10.0 mi NNE 6.9 mph - N/A   Clear
2:40 AM 50.0 °F 50.0 °F 100% 30.16 in 10.0 mi NNE 6.9 mph - N/A   Clear
2:55 AM 48.2 °F 48.2 °F 100% 30.16 in 10.0 mi NNE 5.8 mph - N/A   Clear
3:15 AM 48.2 °F 48.2 °F 100% 30.17 in 10.0 mi North 3.5 mph - N/A   Clear
3:20 AM 48.2 °F 48.2 °F 100% 30.17 in 10.0 mi North 3.5 mph - N/A   Clear
3:40 AM 48.2 °F 48.2 °F 100% 30.18 in 10.0 mi North 3.5 mph - N/A   Clear
3:55 AM 50.0 °F 50.0 °F 100% 30.18 in 10.0 mi Calm Calm - N/A   Clear
4:00 AM 50.0 °F 50.0 °F 100% 30.18 in 10.0 mi Calm Calm - N/A   Clear
4:15 AM 50.0 °F 50.0 °F 100% 30.18 in 10.0 mi NNE 4.6 mph - N/A   Clear
4:20 AM 50.0 °F 50.0 °F 100% 30.18 in 10.0 mi NNE 5.8 mph - N/A   Clear
4:35 AM 48.2 °F 48.2 °F 100% 30.18 in 10.0 mi North 3.5 mph - N/A   Clear
4:40 AM 48.2 °F 48.2 °F 100% 30.19 in 10.0 mi Calm Calm - N/A   Clear
4:55 AM 50.0 °F 50.0 °F 100% 30.19 in 10.0 mi Calm Calm - N/A   Clear
5:00 AM 50.0 °F 50.0 °F 100% 30.19 in 10.0 mi Calm Calm - N/A   Clear
5:15 AM 50.0 °F 50.0 °F 100% 30.19 in 10.0 mi Calm Calm - N/A   Clear
5:20 AM 48.2 °F 48.2 °F 100% 30.19 in 10.0 mi Calm Calm - N/A   Clear
5:35 AM 48.2 °F 48.2 °F 100% 30.19 in 10.0 mi Calm Calm - N/A   Clear
5:40 AM 48.2 °F 48.2 °F 100% 30.19 in 10.0 mi Calm Calm - N/A   Clear
5:55 AM 48.2 °F 48.2 °F 100% 30.19 in 10.0 mi Calm Calm - N/A   Clear
6:00 AM 48.2 °F 48.2 °F 100% 30.20 in 10.0 mi Calm Calm - N/A   Clear
6:15 AM 48.2 °F 48.2 °F 100% 30.20 in 10.0 mi Calm Calm - N/A   Clear
6:35 AM 48.2 °F 48.2 °F 100% 30.20 in 10.0 mi Calm Calm - N/A   Clear
6:40 AM 48.2 °F 48.2 °F 100% 30.21 in 10.0 mi Calm Calm - N/A   Clear
6:55 AM 48.2 °F 48.2 °F 100% 30.20 in 10.0 mi Calm Calm - N/A   Clear
7:00 AM 48.2 °F 48.2 °F 100% 30.21 in 10.0 mi Calm Calm - N/A   Clear
7:15 AM 48.2 °F 48.2 °F 100% 30.21 in 10.0 mi Calm Calm - N/A   Clear
7:20 AM 48.2 °F 48.2 °F 100% 30.21 in 10.0 mi Calm Calm - N/A   Clear
7:35 AM 48.2 °F 48.2 °F 100% 30.21 in 10.0 mi Calm Calm - N/A   Clear
7:40 AM 48.2 °F 48.2 °F 100% 30.21 in 10.0 mi Calm Calm - N/A   Clear
7:55 AM 50.0 °F 50.0 °F 100% 30.21 in 10.0 mi ENE 4.6 mph - N/A   Clear
8:00 AM 50.0 °F 50.0 °F 100% 30.22 in 10.0 mi ENE 3.5 mph - N/A   Clear
8:15 AM 51.8 °F 51.8 °F 100% 30.21 in 10.0 mi East 4.6 mph - N/A   Clear
8:20 AM 53.6 °F 53.6 °F 100% 30.21 in 10.0 mi East 4.6 mph - N/A   Clear
8:35 AM 53.6 °F 53.6 °F 100% 30.21 in 10.0 mi East 5.8 mph - N/A   Clear
8:40 AM 53.6 °F 53.6 °F 100% 30.21 in 10.0 mi East 5.8 mph - N/A   Clear
9:00 AM 55.4 °F 55.4 °F 100% 30.21 in 10.0 mi ESE 4.6 mph - N/A   Clear
9:15 AM 57.2 °F 57.2 °F 100% 30.21 in 10.0 mi SE 5.8 mph - N/A   Clear
9:20 AM 57.2 °F 57.2 °F 100% 30.21 in 10.0 mi SE 4.6 mph - N/A   Clear
9:35 AM 57.2 °F 57.2 °F 100% 30.21 in 10.0 mi SSE 4.6 mph - N/A   Clear
9:55 AM 59.0 °F 59.0 °F 100% 30.21 in 10.0 mi South 4.6 mph - N/A   Clear
10:00 AM 59.0 °F 59.0 °F 100% 30.21 in 10.0 mi SSE 3.5 mph - N/A   Clear
10:15 AM 59.0 °F 59.0 °F 100% 30.21 in 10.0 mi South 5.8 mph - N/A   Clear
10:20 AM 59.0 °F 59.0 °F 100% 30.21 in 10.0 mi South 5.8 mph - N/A   Clear
10:35 AM 60.8 °F 60.8 °F 100% 30.21 in 10.0 mi SSE 4.6 mph - N/A   Clear
10:40 AM 60.8 °F 60.8 °F 100% 30.21 in 10.0 mi South 5.8 mph - N/A   Clear
10:55 AM 62.6 °F 62.6 °F 100% 30.21 in 10.0 mi South 6.9 mph - N/A   Clear
11:15 AM 62.6 °F 62.6 °F 100% 30.21 in 10.0 mi SSE 4.6 mph - N/A   Clear
11:20 AM 62.6 °F 62.6 °F 100% 30.21 in 10.0 mi SSE 4.6 mph - N/A   Clear
11:35 AM 64.4 °F 59.0 °F 83% 30.21 in 10.0 mi SSE 5.8 mph - N/A   Clear
11:55 AM 64.4 °F 59.0 °F 83% 30.20 in 10.0 mi SSE 6.9 mph - N/A   Clear
12:00 PM 64.4 °F 59.0 °F 83% 30.20 in 10.0 mi South 4.6 mph - N/A   Clear
12:15 PM 66.2 °F 59.0 °F 78% 30.19 in 10.0 mi SSE 9.2 mph - N/A   Clear
12:20 PM 66.2 °F 57.2 °F 73% 30.19 in 10.0 mi South 5.8 mph - N/A   Clear
12:35 PM 66.2 °F 59.0 °F 78% 30.19 in 10.0 mi SSE 6.9 mph - N/A   Clear
12:40 PM 66.2 °F 59.0 °F 78% 30.18 in 10.0 mi SSW 9.2 mph - N/A   Clear
12:55 PM 68.0 °F 60.8 °F 78% 30.18 in 10.0 mi South 6.9 mph - N/A   Clear
1:15 PM 68.0 °F 59.0 °F 73% 30.17 in 10.0 mi South 10.4 mph - N/A   Clear
1:20 PM 68.0 °F 59.0 °F 73% 30.17 in 10.0 mi South 8.1 mph - N/A   Clear
1:35 PM 68.0 °F 59.0 °F 73% 30.17 in 10.0 mi South 8.1 mph - N/A   Clear
1:40 PM 68.0 °F 59.0 °F 73% 30.17 in 10.0 mi SSE 9.2 mph - N/A   Clear
1:55 PM 68.0 °F 59.0 °F 73% 30.16 in 10.0 mi SSE 6.9 mph - N/A   Clear
2:15 PM 69.8 °F 59.0 °F 68% 30.16 in 10.0 mi SSW 9.2 mph - N/A   Clear
2:20 PM 69.8 °F 59.0 °F 68% 30.16 in 10.0 mi South 9.2 mph - N/A   Clear
2:35 PM 69.8 °F 59.0 °F 68% 30.15 in 10.0 mi SE 8.1 mph - N/A   Clear
3:00 PM 71.6 °F 59.0 °F 64% 30.14 in 10.0 mi South 9.2 mph - N/A   Clear
3:15 PM 71.6 °F 59.0 °F 64% 30.13 in 10.0 mi South 6.9 mph - N/A   Clear
3:20 PM 71.6 °F 59.0 °F 64% 30.13 in 10.0 mi South 9.2 mph - N/A   Clear
3:35 PM 71.6 °F 59.0 °F 64% 30.12 in 10.0 mi SSE 10.4 mph - N/A   Clear
3:55 PM 71.6 °F 59.0 °F 64% 30.12 in 10.0 mi South 10.4 mph - N/A   Clear
4:00 PM 71.6 °F 57.2 °F 60% 30.12 in 10.0 mi South 9.2 mph - N/A   Clear
4:15 PM 71.6 °F 57.2 °F 60% 30.11 in 10.0 mi South 8.1 mph - N/A   Clear
4:20 PM 71.6 °F 59.0 °F 64% 30.11 in 10.0 mi SSE 9.2 mph - N/A   Clear
4:35 PM 71.6 °F 57.2 °F 60% 30.11 in 10.0 mi South 10.4 mph - N/A   Clear
4:55 PM 71.6 °F 57.2 °F 60% 30.10 in 10.0 mi South 12.7 mph - N/A   Clear
5:15 PM 71.6 °F 57.2 °F 60% 30.09 in 10.0 mi South 11.5 mph 16.1 mph N/A   Clear
5:20 PM 71.6 °F 57.2 °F 60% 30.09 in 10.0 mi South 12.7 mph 16.1 mph N/A   Clear
5:35 PM 71.6 °F 59.0 °F 64% 30.09 in 10.0 mi South 13.8 mph 18.4 mph N/A   Clear
5:40 PM 71.6 °F 59.0 °F 64% 30.09 in 10.0 mi South 11.5 mph 18.4 mph N/A   Clear
5:55 PM 71.6 °F 59.0 °F 64% 30.09 in 10.0 mi South 15.0 mph 19.6 mph N/A   Clear
6:00 PM 71.6 °F 59.0 °F 64% 30.09 in 10.0 mi South 13.8 mph 19.6 mph N/A   Clear
6:15 PM 71.6 °F 59.0 °F 64% 30.09 in 10.0 mi South 13.8 mph - N/A   Clear
6:35 PM 71.6 °F 59.0 °F 64% 30.09 in 10.0 mi South 11.5 mph - N/A   Clear
6:55 PM 69.8 °F 60.8 °F 73% 30.08 in 10.0 mi South 9.2 mph - N/A   Clear
7:00 PM 68.0 °F 62.6 °F 83% 30.08 in 10.0 mi South 9.2 mph - N/A   Clear
7:15 PM 68.0 °F 64.4 °F 88% 30.08 in 10.0 mi South 8.1 mph - N/A   Clear
7:20 PM 68.0 °F 64.4 °F 88% 30.09 in 10.0 mi South 6.9 mph - N/A   Clear
7:35 PM 66.2 °F 64.4 °F 94% 30.09 in 10.0 mi South 8.1 mph - N/A   Clear
7:55 PM 64.4 °F 64.4 °F 100% 30.09 in 10.0 mi South 5.8 mph - N/A   Clear
8:15 PM 64.4 °F 64.4 °F 100% 30.09 in 10.0 mi South 5.8 mph - N/A   Clear
8:20 PM 64.4 °F 64.4 °F 100% 30.08 in 10.0 mi South 5.8 mph - N/A   Clear
8:35 PM 64.4 °F 64.4 °F 100% 30.08 in 10.0 mi SSE 6.9 mph - N/A   Clear
8:55 PM 64.4 °F 64.4 °F 100% 30.08 in 10.0 mi SSE 9.2 mph - N/A   Clear
9:15 PM 64.4 °F 64.4 °F 100% 30.07 in 10.0 mi South 11.5 mph - N/A   Clear
9:20 PM 64.4 °F 64.4 °F 100% 30.07 in 10.0 mi South 11.5 mph - N/A   Clear
9:35 PM 62.6 °F 62.6 °F 100% 30.07 in 10.0 mi South 9.2 mph - N/A   Clear
9:55 PM 62.6 °F 62.6 °F 100% 30.08 in 10.0 mi SSE 8.1 mph - N/A   Clear
10:00 PM 62.6 °F 62.6 °F 100% 30.08 in 10.0 mi SSE 6.9 mph - N/A   Clear
10:15 PM 62.6 °F 62.6 °F 100% 30.08 in 10.0 mi SSE 9.2 mph - N/A   Clear
10:20 PM 62.6 °F 62.6 °F 100% 30.08 in 10.0 mi SSE 10.4 mph - N/A   Clear
10:35 PM 62.6 °F 62.6 °F 100% 30.08 in 10.0 mi South 9.2 mph - N/A   Clear
10:55 PM 60.8 °F 60.8 °F 100% 30.07 in 10.0 mi SSE 8.1 mph - N/A   Clear
11:00 PM 60.8 °F 60.8 °F 100% 30.08 in 10.0 mi SSE 9.2 mph - N/A   Clear
11:15 PM 60.8 °F 60.8 °F 100% 30.07 in 10.0 mi SSE 9.2 mph - N/A   Clear
11:20 PM 60.8 °F 60.8 °F 100% 30.07 in 10.0 mi South 9.2 mph - N/A   Clear
11:35 PM 60.8 °F 60.8 °F 100% 30.06 in 10.0 mi South 10.4 mph - N/A   Clear
11:55 PM 60.8 °F 60.8 °F 100% 30.06 in 10.0 mi South 9.2 mph - N/A   Clear